SL-24 R/B

Satellite information

Favourite Embed

Satellite Type and Status

ROCKET BODYIN ORBIT

Key statistics

Satellite SL-24 R/B at a glance.

Uptime

3957

Days in orbit

Revolutions

≈ 13.1

Per day

Orbit

SSO

Sun Synchronous Orbit

Inclination

97.1

Latest

Satellite identification and parameters

Extended collection of information and parameters for SL-24 R/B.

Object identification

Identified? True

Debris? False

Object name: SL-24 R/B

International designator: 2014-070F

Object number (NORAD): 40303

Object ID (CCSDS): 40303

Country: COMMONWEALTH OF INDEPENDENT STATES (CIS)

Current information (Y/N): Y

RCS size: LARGE

Orbital parameters

Period: 109.507 minutes

Inclination: 97.143 deg

SMA: 7582.083 km

Apoapsis: 1923.189 km

Periapsis: 484.708 km

RAAN: 228.563 deg

Eccentricy: 0.09486057

Argument of periapsis: 191.1339 deg

Mean anomaly: 166.7395 deg

Mean motion: 13.14982375 rev/day

Mean motion (dot): 0.00000283 rev/day2

B* drag term: 0.000072805503 1/REarth

Two-line elements (TLE)

Creation date: Sept. 6, 2025, 2:09 a.m.

Reference frame: TEME

Reference center: EARTH

Epoch: Sept. 5, 2025, 10:22 p.m. UTC

TLE line 0: 0 SL-24 R/B

TLE line 1: 1 40303U 14070F 25248.93195526 .00000283 00000-0 72806-4 0 9993

TLE line 2: 2 40303 97.1430 228.5630 0948606 191.1339 166.7395 13.14982375519265

Live tracking on map

Real-time ground track for satellite SL-24 R/B.

In-orbit conjunctions

A list of the most updated potential collisions computed for object SL-24 R/B.

Target Orbit TCA Probability of collision Miss distance Type
TITAN 4B R/B LEO 2024-11-14 12:01:21 0.002685295 604.0 (m) ROCKET BODY
METEOR 2-7 LEO 2024-10-12 14:54:20 0.0003995611 886.0 (m) PAYLOAD

Associated space launch

SL-24 R/B was lifted into orbit during the mission ‘Dnepr 1 | ASNARO’, on board a Dnepr space rocket.

The launch took place on Nov. 6, 2014, 7:35 a.m. from 370/13.

For more information about the launch, click the button.

Launch to space Dnepr 1 | ASNARO
Dnepr 1 | ASNARO

Agency: N/A

Status: Launch Successful

Launch date: Nov. 6, 2014, 7:35 a.m. UTC

Rocket: Dnepr

Launch pad: 370/13

Location: Dombarovskiy, Russian Federation

...

Latest news about this satellite

There are no fresh news available about this satellite. Check back as we update our databases every day.


Newsletter sign-up

Weekly statistics, charts and insights to help you stay on top of the space industry.